LAN007 SCEL-SCIE

Flight info

Callsign LAN007
Flight time 0h 45m
Altitude 29000
Route GELUS5B GELUS UQ809 ARUNI ARUNI6C
Aircraft A321/M-SDE3FGHIRWY/LB1

Departure

Time 2026-05-09 15:29
Airport Comodoro Arturo Merino Benítez International Airport (SCEL)

Arrival

Time 2026-05-09 16:14
Airport Carriel Sur International Airport (SCIE)
Time Latitude Longitude Altitude Speed Heading
2026-05-09 14:59 -33.39589 -70.79219 1589 ft 0 kts 176°
2026-05-09 15:14 -33.39588 -70.79219 1594 ft 3 kts 176°
2026-05-09 15:14 -33.39570 -70.79220 1564 ft 3 kts 176°
2026-05-09 15:15 -33.39553 -70.79222 1564 ft 3 kts 176°
2026-05-09 15:15 -33.39536 -70.79223 1564 ft 3 kts 176°
2026-05-09 15:15 -33.39518 -70.79224 1564 ft 3 kts 173°
2026-05-09 15:15 -33.39502 -70.79232 1564 ft 3 kts 96°
2026-05-09 15:16 -33.39501 -70.79231 1564 ft 0 kts 88°
2026-05-09 15:17 -33.39501 -70.79230 1564 ft 0 kts 88°
2026-05-09 15:17 -33.39501 -70.79209 1564 ft 6 kts 88°
2026-05-09 15:17 -33.39483 -70.79148 1564 ft 9 kts 46°
2026-05-09 15:18 -33.39411 -70.79139 1564 ft 12 kts 357°
2026-05-09 15:18 -33.39329 -70.79159 1564 ft 10 kts 309°
2026-05-09 15:18 -33.39318 -70.79251 1564 ft 13 kts 270°
2026-05-09 15:18 -33.39322 -70.79375 1564 ft 17 kts 269°
2026-05-09 15:19 -33.39326 -70.79523 1564 ft 19 kts 266°
2026-05-09 15:19 -33.39335 -70.79686 1564 ft 20 kts 264°
2026-05-09 15:19 -33.39342 -70.79861 1565 ft 22 kts 267°
2026-05-09 15:19 -33.39311 -70.80026 1566 ft 16 kts 314°
2026-05-09 15:20 -33.39197 -70.80061 1566 ft 19 kts 357°
2026-05-09 15:20 -33.38882 -70.80079 1567 ft 26 kts 357°
2026-05-09 15:20 -33.38697 -70.80090 1567 ft 26 kts 357°
2026-05-09 15:21 -33.38533 -70.80100 1567 ft 22 kts 358°
2026-05-09 15:21 -33.38395 -70.80107 1566 ft 18 kts 358°
2026-05-09 15:21 -33.38267 -70.80113 1566 ft 19 kts 358°
2026-05-09 15:21 -33.38130 -70.80120 1566 ft 20 kts 357°
2026-05-09 15:22 -33.37978 -70.80127 1566 ft 23 kts 357°
2026-05-09 15:22 -33.37819 -70.80137 1566 ft 22 kts 356°
2026-05-09 15:22 -33.37668 -70.80146 1566 ft 21 kts 355°
2026-05-09 15:22 -33.37524 -70.80153 1566 ft 20 kts 357°
2026-05-09 15:23 -33.37391 -70.80159 1567 ft 19 kts 356°
2026-05-09 15:23 -33.37310 -70.80164 1567 ft 0 kts 358°
2026-05-09 15:26 -33.37308 -70.80164 1567 ft 2 kts 358°
2026-05-09 15:26 -33.37251 -70.80166 1567 ft 13 kts 357°
2026-05-09 15:27 -33.37160 -70.80177 1567 ft 13 kts 342°
2026-05-09 15:27 -33.37107 -70.80239 1569 ft 9 kts 293°
2026-05-09 15:27 -33.37107 -70.80303 1572 ft 9 kts 255°
2026-05-09 15:27 -33.37166 -70.80373 1574 ft 15 kts 192°
2026-05-09 15:28 -33.37200 -70.80374 1573 ft 0 kts 176°
2026-05-09 15:28 -33.37326 -70.80367 1573 ft 52 kts 177°
2026-05-09 15:28 -33.37913 -70.80337 1573 ft 114 kts 177°
2026-05-09 15:28 -33.38876 -70.80284 1574 ft 161 kts 178°
2026-05-09 15:29 -33.40104 -70.80222 1750 ft 183 kts 178°
2026-05-09 15:29 -33.41376 -70.80148 2345 ft 183 kts 177°
2026-05-09 15:29 -33.42653 -70.80074 2929 ft 187 kts 177°
2026-05-09 15:29 -33.44019 -70.79990 3084 ft 207 kts 177°
2026-05-09 15:30 -33.45538 -70.79897 3224 ft 231 kts 176°
2026-05-09 15:30 -33.47231 -70.79793 3482 ft 254 kts 176°
2026-05-09 15:30 -33.49009 -70.79696 4151 ft 262 kts 179°
2026-05-09 15:30 -33.50784 -70.80212 4858 ft 270 kts 211°
2026-05-09 15:31 -33.52050 -70.81871 5563 ft 277 kts 245°
2026-05-09 15:31 -33.52586 -70.84131 6315 ft 281 kts 262°
2026-05-09 15:31 -33.52787 -70.86447 7044 ft 284 kts 266°
2026-05-09 15:31 -33.52934 -70.88821 7804 ft 287 kts 266°
2026-05-09 15:32 -33.53136 -70.91216 8542 ft 290 kts 264°
2026-05-09 15:32 -33.53424 -70.93624 9299 ft 294 kts 260°
2026-05-09 15:32 -33.54086 -70.95951 10016 ft 299 kts 242°
2026-05-09 15:32 -33.55341 -70.97933 10651 ft 302 kts 222°
2026-05-09 15:33 -33.57058 -70.99378 11298 ft 303 kts 205°
2026-05-09 15:33 -33.59016 -71.00558 11461 ft 326 kts 204°
2026-05-09 15:33 -33.61110 -71.01810 11623 ft 346 kts 204°
2026-05-09 15:33 -33.63282 -71.03114 12152 ft 352 kts 204°
2026-05-09 15:34 -33.65480 -71.04440 12841 ft 354 kts 204°
2026-05-09 15:34 -33.67687 -71.05778 13565 ft 355 kts 203°
2026-05-09 15:34 -33.69896 -71.07121 14241 ft 356 kts 203°
2026-05-09 15:34 -33.71355 -71.08011 14662 ft 356 kts 202°
2026-05-09 15:35 -33.73561 -71.09358 15334 ft 355 kts 202°
2026-05-09 15:35 -33.75763 -71.10702 15986 ft 355 kts 202°
2026-05-09 15:35 -33.77963 -71.12045 16660 ft 355 kts 201°
2026-05-09 15:35 -33.80164 -71.13389 17275 ft 355 kts 201°
2026-05-09 15:36 -33.82364 -71.14731 17894 ft 354 kts 201°
2026-05-09 15:36 -33.84565 -71.16071 18446 ft 355 kts 201°
2026-05-09 15:36 -33.86775 -71.17415 18863 ft 357 kts 201°
2026-05-09 15:36 -33.88997 -71.18770 19307 ft 358 kts 201°
2026-05-09 15:37 -33.91220 -71.20128 19716 ft 360 kts 201°
2026-05-09 15:37 -33.93458 -71.21498 20176 ft 361 kts 201°
2026-05-09 15:37 -33.95712 -71.22877 20624 ft 362 kts 202°
2026-05-09 15:37 -33.97928 -71.24229 21040 ft 363 kts 201°
2026-05-09 15:38 -34.00188 -71.25610 21466 ft 365 kts 202°
2026-05-09 15:38 -34.02458 -71.27000 21891 ft 366 kts 202°
2026-05-09 15:38 -34.04730 -71.28397 22339 ft 368 kts 202°
2026-05-09 15:38 -34.07019 -71.29805 22786 ft 370 kts 202°
2026-05-09 15:39 -34.09316 -71.31216 23208 ft 371 kts 202°
2026-05-09 15:39 -34.11624 -71.32634 23671 ft 373 kts 203°
2026-05-09 15:39 -34.13945 -71.34065 24043 ft 375 kts 203°
2026-05-09 15:39 -34.16273 -71.35500 24401 ft 377 kts 203°
2026-05-09 15:40 -34.18622 -71.36946 24752 ft 379 kts 203°
2026-05-09 15:40 -34.20978 -71.38393 25104 ft 381 kts 203°
2026-05-09 15:40 -34.23340 -71.39843 25422 ft 382 kts 203°
2026-05-09 15:40 -34.25717 -71.41306 25765 ft 384 kts 203°
2026-05-09 15:41 -34.28105 -71.42782 26097 ft 386 kts 203°
2026-05-09 15:41 -34.30498 -71.44264 26418 ft 388 kts 203°
2026-05-09 15:41 -34.32906 -71.45752 26742 ft 389 kts 203°
2026-05-09 15:41 -34.35323 -71.47247 27060 ft 391 kts 203°
2026-05-09 15:42 -34.37750 -71.48747 27386 ft 393 kts 203°
2026-05-09 15:42 -34.40191 -71.50257 27689 ft 394 kts 203°
2026-05-09 15:42 -34.42634 -71.51771 27974 ft 396 kts 203°
2026-05-09 15:42 -34.45098 -71.53299 28293 ft 398 kts 203°
2026-05-09 15:43 -34.47564 -71.54830 28584 ft 400 kts 203°
2026-05-09 15:43 -34.49589 -71.56086 28812 ft 401 kts 203°
2026-05-09 15:43 -34.52081 -71.57630 29053 ft 403 kts 203°
2026-05-09 15:43 -34.54561 -71.59172 29125 ft 395 kts 203°
2026-05-09 15:44 -34.59373 -71.62175 29124 ft 385 kts 203°
2026-05-09 15:44 -34.64137 -71.65137 29126 ft 384 kts 203°
2026-05-09 15:45 -34.68893 -71.68097 29127 ft 384 kts 203°
2026-05-09 15:45 -34.73655 -71.71068 29132 ft 385 kts 203°
2026-05-09 15:46 -34.78391 -71.74032 29129 ft 385 kts 203°
2026-05-09 15:46 -34.83157 -71.77014 29128 ft 385 kts 203°
2026-05-09 15:47 -34.87916 -71.79996 29127 ft 385 kts 203°
2026-05-09 15:47 -34.92676 -71.82985 29127 ft 385 kts 203°
2026-05-09 15:48 -34.97443 -71.85981 29127 ft 385 kts 203°
2026-05-09 15:48 -35.02209 -71.88979 29127 ft 385 kts 203°
2026-05-09 15:49 -35.06967 -71.91983 29126 ft 385 kts 204°
2026-05-09 15:49 -35.11732 -71.94987 29125 ft 386 kts 203°
2026-05-09 15:50 -35.16510 -71.97997 29129 ft 386 kts 203°
2026-05-09 15:50 -35.21285 -72.01013 29136 ft 386 kts 203°
2026-05-09 15:51 -35.26056 -72.04031 29136 ft 386 kts 204°
2026-05-09 15:51 -35.30822 -72.07069 29130 ft 386 kts 204°
2026-05-09 15:52 -35.37978 -72.11624 28828 ft 388 kts 204°
2026-05-09 15:52 -35.40368 -72.13147 28260 ft 385 kts 204°
2026-05-09 15:53 -35.42730 -72.14651 27818 ft 380 kts 204°
2026-05-09 15:53 -35.45057 -72.16133 27381 ft 375 kts 204°
2026-05-09 15:53 -35.47326 -72.17577 26939 ft 370 kts 204°
2026-05-09 15:53 -35.49591 -72.19024 26514 ft 365 kts 204°
2026-05-09 15:54 -35.51829 -72.20457 26102 ft 360 kts 204°
2026-05-09 15:54 -35.54039 -72.21870 25706 ft 356 kts 203°
2026-05-09 15:54 -35.56223 -72.23269 25304 ft 352 kts 203°
2026-05-09 15:54 -35.58374 -72.24646 24918 ft 347 kts 203°
2026-05-09 15:55 -35.60505 -72.26007 24537 ft 343 kts 203°
2026-05-09 15:55 -35.62611 -72.27354 24152 ft 340 kts 203°
2026-05-09 15:55 -35.64694 -72.28688 23770 ft 336 kts 203°
2026-05-09 15:55 -35.66759 -72.30014 23346 ft 333 kts 203°
2026-05-09 15:56 -35.68796 -72.31322 22955 ft 329 kts 203°
2026-05-09 15:56 -35.70810 -72.32613 22585 ft 324 kts 203°
2026-05-09 15:56 -35.72799 -72.33890 22205 ft 320 kts 203°
2026-05-09 15:56 -35.74764 -72.35151 21834 ft 317 kts 203°
2026-05-09 15:57 -35.76705 -72.36400 21466 ft 314 kts 203°
2026-05-09 15:57 -35.78636 -72.37643 21083 ft 312 kts 203°
2026-05-09 15:57 -35.80553 -72.38877 20714 ft 311 kts 203°
2026-05-09 15:57 -35.82466 -72.40108 20345 ft 309 kts 203°
2026-05-09 15:58 -35.84370 -72.41333 19972 ft 308 kts 203°
2026-05-09 15:58 -35.86265 -72.42551 19609 ft 307 kts 203°
2026-05-09 15:58 -35.88157 -72.43767 19207 ft 306 kts 203°
2026-05-09 15:58 -35.90025 -72.45034 18799 ft 307 kts 205°
2026-05-09 15:59 -35.91866 -72.46386 18379 ft 308 kts 207°
2026-05-09 15:59 -35.93695 -72.47777 17937 ft 307 kts 207°
2026-05-09 15:59 -35.95504 -72.49168 17531 ft 305 kts 207°
2026-05-09 15:59 -35.97276 -72.50526 17140 ft 303 kts 206°
2026-05-09 16:00 -35.99064 -72.51888 16755 ft 302 kts 206°
2026-05-09 16:00 -35.99671 -72.52349 16621 ft 301 kts 206°
2026-05-09 16:00 -36.02627 -72.54584 15980 ft 298 kts 205°
2026-05-09 16:00 -36.04397 -72.55912 15603 ft 297 kts 205°
2026-05-09 16:01 -36.06160 -72.57234 15226 ft 296 kts 205°
2026-05-09 16:01 -36.07915 -72.58552 14843 ft 295 kts 205°
2026-05-09 16:01 -36.09664 -72.59866 14473 ft 295 kts 205°
2026-05-09 16:01 -36.11417 -72.61185 14086 ft 295 kts 205°
2026-05-09 16:02 -36.13127 -72.62471 13688 ft 294 kts 205°
2026-05-09 16:02 -36.16652 -72.65127 12916 ft 292 kts 205°
2026-05-09 16:02 -36.18378 -72.66428 12550 ft 289 kts 205°
2026-05-09 16:03 -36.19803 -72.67503 12232 ft 288 kts 206°
2026-05-09 16:03 -36.21487 -72.68769 11862 ft 287 kts 206°
2026-05-09 16:03 -36.23191 -72.70056 11472 ft 285 kts 206°
2026-05-09 16:03 -36.24882 -72.71334 11100 ft 284 kts 206°
2026-05-09 16:04 -36.26575 -72.72614 10701 ft 285 kts 207°
2026-05-09 16:04 -36.28260 -72.73888 10426 ft 281 kts 207°
2026-05-09 16:04 -36.29940 -72.75157 10351 ft 284 kts 207°
2026-05-09 16:04 -36.31630 -72.76432 10145 ft 286 kts 207°
2026-05-09 16:05 -36.33321 -72.77711 9717 ft 286 kts 207°
2026-05-09 16:05 -36.35012 -72.78993 9280 ft 285 kts 207°
2026-05-09 16:05 -36.36703 -72.80276 8940 ft 283 kts 207°
2026-05-09 16:05 -36.38382 -72.81551 8525 ft 284 kts 207°
2026-05-09 16:06 -36.40058 -72.82818 8141 ft 281 kts 207°
2026-05-09 16:06 -36.41729 -72.84069 7742 ft 280 kts 208°
2026-05-09 16:06 -36.43371 -72.85294 7439 ft 277 kts 207°
2026-05-09 16:06 -36.45021 -72.86525 7032 ft 277 kts 207°
2026-05-09 16:07 -36.46655 -72.87746 6609 ft 277 kts 207°
2026-05-09 16:07 -36.48287 -72.88970 6192 ft 269 kts 207°
2026-05-09 16:07 -36.49864 -72.90158 5834 ft 261 kts 207°
2026-05-09 16:07 -36.51403 -72.91299 5477 ft 254 kts 204°
2026-05-09 16:08 -36.52973 -72.92234 5132 ft 246 kts 201°
2026-05-09 16:08 -36.54512 -72.93127 4798 ft 241 kts 201°
2026-05-09 16:08 -36.56008 -72.93990 4458 ft 232 kts 202°
2026-05-09 16:08 -36.57433 -72.94813 4162 ft 220 kts 201°
2026-05-09 16:09 -36.58795 -72.95598 3872 ft 212 kts 201°
2026-05-09 16:09 -36.60097 -72.96350 3603 ft 199 kts 201°
2026-05-09 16:09 -36.61315 -72.97056 3310 ft 187 kts 200°
2026-05-09 16:09 -36.62446 -72.97717 3077 ft 172 kts 200°
2026-05-09 16:10 -36.63487 -72.98326 2829 ft 158 kts 198°
2026-05-09 16:10 -36.64429 -72.98878 2618 ft 144 kts 197°
2026-05-09 16:10 -36.65311 -72.99389 2430 ft 139 kts 196°
2026-05-09 16:10 -36.66194 -72.99899 2235 ft 137 kts 196°
2026-05-09 16:11 -36.67048 -73.00390 2054 ft 136 kts 196°
2026-05-09 16:11 -36.67920 -73.00892 1856 ft 136 kts 196°
2026-05-09 16:11 -36.68773 -73.01382 1673 ft 137 kts 197°
2026-05-09 16:11 -36.69634 -73.01878 1476 ft 137 kts 199°
2026-05-09 16:12 -36.70502 -73.02379 1297 ft 137 kts 201°
2026-05-09 16:12 -36.71347 -73.02868 1100 ft 136 kts 202°
2026-05-09 16:12 -36.72207 -73.03367 905 ft 137 kts 202°
2026-05-09 16:12 -36.73071 -73.03870 721 ft 137 kts 201°
2026-05-09 16:13 -36.73928 -73.04368 537 ft 136 kts 200°
2026-05-09 16:13 -36.74782 -73.04864 357 ft 135 kts 201°
2026-05-09 16:13 -36.75637 -73.05359 156 ft 137 kts 200°
2026-05-09 16:13 -36.76492 -73.05871 73 ft 132 kts 200°
2026-05-09 16:14 -36.77158 -73.06260 57 ft 66 kts 205°
2026-05-09 16:14 -36.77409 -73.06408 64 ft 27 kts 205°
2026-05-09 16:14 -36.77556 -73.06490 68 ft 21 kts 206°
2026-05-09 16:14 -36.77684 -73.06567 60 ft 21 kts 205°
2026-05-09 16:15 -36.77815 -73.06644 57 ft 20 kts 204°
2026-05-09 16:15 -36.77918 -73.06692 60 ft 11 kts 174°
2026-05-09 16:15 -36.77991 -73.06611 56 ft 18 kts 112°
2026-05-09 16:15 -36.77993 -73.06509 57 ft 10 kts 39°
2026-05-09 16:16 -36.77916 -73.06457 58 ft 17 kts 26°
2026-05-09 16:16 -36.77776 -73.06375 54 ft 27 kts 25°
2026-05-09 16:16 -36.77611 -73.06277 59 ft 25 kts 26°
2026-05-09 16:16 -36.77509 -73.06189 60 ft 14 kts 77°
2026-05-09 16:17 -36.77528 -73.06090 57 ft 10 kts 107°
2026-05-09 16:17 -36.77538 -73.06008 60 ft 8 kts 96°
2026-05-09 16:17 -36.77571 -73.05987 57 ft 4 kts 176°
2026-05-09 16:17 -36.77589 -73.05987 55 ft 1 kts 179°
2026-05-09 16:18 -36.77596 -73.05986 57 ft 1 kts 179°
2026-05-09 16:18 -36.77599 -73.05986 58 ft 0 kts 179°